{"data":{"norad_id":68534,"intl_designator":"2026-068AC","name":"STARLINK-36299","alt_names":[],"object_type":"PAYLOAD","status":"ACTIVE","operator":null,"country":"US","launch_date":"2026-03-30","launch_site_code":"AFETR","launch_vehicle":null,"mission":null,"orbit_class":"UNKNOWN","rcs_meters":null,"size_class":null,"mass_kg":null,"dimensions":null,"purposes":["comms"],"wikipedia_slug":null,"has_3d_model":false,"image_url":null,"decayed_at":null,"tle_current":{"epoch":"2026-09-19T19:57:45.356544Z","epoch_age_seconds":105355,"freshness":"FRESH","line1":"1 68534U 26068AC  26262.83177496  .00012934  00000+0  39321-3 0  9990","line2":"2 68534  53.1609 302.9038 0000752  73.5115 286.5971 15.34404063 26739","mean_motion":15.34404063,"eccentricity":7.52e-5,"inclination_deg":53.1609,"raan_deg":302.9038,"arg_perigee_deg":73.5115,"mean_anomaly_deg":286.5971,"bstar":0.00039321,"rev_number":2673,"period_min":93.847509578707,"perigee_km":462.17673386357,"apogee_km":463.20559441946,"semimajor_km":6840.8281641415,"source":"CELESTRAK","updated_at":"2026-09-20T09:00:43.908832Z"}}}